Weather History for Kalamata, Greece

Change the Weather History Date:

Saturday, December 22, 2012

  Actual Average Record
Temperature  
Mean Temperature 52 °F -  
Max Temperature 59 °F 60 °F 66 °F (1996)
Min Temperature 44 °F 43 °F 33 °F (2002)
Degree Days  
Heating Degree Days 14    
Growing Degree Days 2 (Base 50)    
Moisture  
Dew Point 44 °F    
Average Humidity 75    
Maximum Humidity 100    
Minimum Humidity 51    
Precipitation  
Precipitation 0.00 in 0.16 in - ()
Sea Level Pressure  
Sea Level Pressure 29.76 in    
Wind  
Wind Speed 6 mph ()    
Max Wind Speed 15 mph    
Max Gust Speed -    
Visibility 5.7 miles    
Events Rain    
Averages and records for this station are not official NWS values.
T = Trace of Precipitation, MM = Missing Value Source: Averaged Metar Reports

Daily Weather History Graph

Daily Weather History Graph

Search for Another Location

Airport:

Trip Planner

Search our weather history database for the weather conditions in past years. The results will help you decide how hot, cold, wet, or windy it might be!

Date:

Astronomy

Dec. 22, 2012 Rise Set
Actual Time 7:42 AM EET 5:19 PM EET
Civil Twilight 7:13 AM EET 5:48 PM EET
Nautical Twilight 6:40 AM EET 6:20 PM EET
Astronomical Twilight 6:08 AM EET 6:52 PM EET
Moon 1:22 PM EET (12/22) 2:14 AM EET (12/22)
Length of Visible Light 10h 35m
Length of Day
9h 36m
Waxing Gibbous, 71% of the Moon is Illuminated
Dec 22
Waxing Gibbous
Dec 28
Full
Jan 5
Last Quarter
Jan 11
New
Jan 19
First Quarter

Hourly Weather History & Observations

Time (EET) Temp. Windchill Dew Point Humidity Pressure Visibility Wind Dir Wind Speed Gust Speed Precip Events Conditions
1:50 AM 44.6 °F 42.2 °F 42.8 °F 93% 29.80 in 6.2 mi NNW 4.6 mph - N/A   Mostly Cloudy
4:50 AM 46.4 °F 44.3 °F 44.6 °F 93% 29.77 in 5.0 mi NNW 4.6 mph - N/A Rain Light Rain
5:20 AM 46.4 °F 44.3 °F 44.6 °F 93% 29.74 in 5.0 mi North 4.6 mph - N/A Rain Light Rain
5:50 AM 46.4 °F 43.5 °F 44.6 °F 93% 29.74 in 5.0 mi North 5.8 mph - N/A Rain Light Rain
6:50 AM 46.4 °F 43.5 °F 44.6 °F 93% 29.74 in 5.0 mi NNW 5.8 mph - N/A Rain Light Rain
7:20 AM 46.4 °F 42.9 °F 44.6 °F 93% 29.74 in 5.0 mi North 6.9 mph - N/A Rain Light Rain
7:50 AM 46.4 °F 42.4 °F 44.6 °F 93% 29.74 in 5.0 mi North 8.1 mph - N/A Rain Light Rain
8:20 AM 46.4 °F 44.3 °F 44.6 °F 93% 29.74 in 5.0 mi North 4.6 mph - N/A Rain Rain
8:50 AM 46.4 °F 43.5 °F 44.6 °F 93% 29.74 in 5.0 mi North 5.8 mph - N/A Rain Light Rain
9:20 AM 46.4 °F 44.3 °F 46.4 °F 100% 29.77 in 5.0 mi North 4.6 mph - N/A Rain Light Rain
9:50 AM 48.2 °F - 46.4 °F 93% 29.77 in 5.0 mi NNW 5.8 mph - N/A   Overcast
10:20 AM 50.0 °F - 46.4 °F 87% 29.77 in 4.3 mi Calm Calm - N/A Rain Light Rain
10:50 AM 50.0 °F - 48.2 °F 94% 29.77 in 5.0 mi NNW 6.9 mph - N/A   Mostly Cloudy
11:20 AM 51.8 °F - 48.2 °F 88% 29.77 in 5.0 mi NNW 8.1 mph - N/A   Mostly Cloudy
11:50 AM 55.4 °F - 48.2 °F 77% 29.74 in 6.2 mi North 9.2 mph - N/A   Mostly Cloudy
12:20 PM 55.4 °F - 46.4 °F 72% 29.74 in 6.2 mi NNW 9.2 mph - N/A   Mostly Cloudy
12:50 PM 57.2 °F - 46.4 °F 67% 29.74 in 6.2 mi NNW 10.4 mph - N/A   Mostly Cloudy
1:20 PM 59.0 °F - 46.4 °F 63% 29.74 in 6.2 mi NNW 9.2 mph - N/A   Mostly Cloudy
1:50 PM 57.2 °F - 44.6 °F 63% 29.74 in 6.2 mi NNW 9.2 mph - N/A   Scattered Clouds
2:20 PM 57.2 °F - 46.4 °F 67% 29.74 in 6.2 mi NNW 6.9 mph - N/A   Scattered Clouds
2:50 PM 59.0 °F - 44.6 °F 59% 29.74 in 6.2 mi NNW 6.9 mph - N/A   Scattered Clouds
3:20 PM 59.0 °F - 44.6 °F 59% 29.74 in 6.2 mi NNE 5.8 mph - N/A   Scattered Clouds
3:50 PM 59.0 °F - 42.8 °F 55% 29.74 in 6.2 mi NW 4.6 mph - N/A   Mostly Cloudy
4:20 PM 57.2 °F - 42.8 °F 59% 29.74 in 6.2 mi Calm Calm - N/A   Mostly Cloudy
4:50 PM 55.4 °F - 39.2 °F 54% 29.74 in 6.2 mi North 8.1 mph - N/A   Mostly Cloudy
5:20 PM 55.4 °F - 39.2 °F 54% 29.74 in 6.2 mi NW 11.5 mph - N/A   Mostly Cloudy
5:50 PM 55.4 °F - 39.2 °F 54% 29.77 in 6.2 mi NW 11.5 mph - N/A   Mostly Cloudy
6:20 PM 53.6 °F - 39.2 °F 58% 29.77 in 6.2 mi NNW 8.1 mph - N/A   Mostly Cloudy
7:20 PM 53.6 °F - 37.4 °F 54% 29.80 in 6.2 mi NNW 11.5 mph - N/A   Mostly Cloudy
7:50 PM 55.4 °F - 37.4 °F 51% 29.80 in 6.2 mi NNW 15.0 mph - N/A   Mostly Cloudy
10:50 PM 53.6 °F - 35.6 °F 51% 29.86 in 6.2 mi North 4.6 mph - N/A   Mostly Cloudy